Location: Newark
(42.8481°N, 0.4872°E)
Time: 20:08:37
(UTC+00:00)

Transit 2A - Pass Details

Date: 31 October 2020
Orbit: 595 x 963 km, 66.7° (Epoch: 03 December)

Event Time Altitude Azimuth Distance (km) Brightness Sun altitude
Rises 23:15:50 0° 186° (S) 3,601 - -61.1°
Reaches altitude 10° 23:18:29 10° 180° (S) 2,679 - -61.2°
Maximum altitude 23:24:22 42° 112° (ESE) 1,348 - -61.4°
Drops below altitude 10° 23:30:13 10° 44° (NE) 2,669 - -61.5°
Sets 23:32:51 0° 37° (NE) 3,586 - -61.6°
